Погода в Больших Козлах

Россия / Калужская область     54°25′17″N   36°19′35″E
темп.,
°C
ветер,
м/с
пор.,
м/с
влажн.,
%
обл.,
%
осадки,
мм/ч
давл.,
гПа
погр.,
м
5 августа, чт
чт500:00+14ююз11787 0.1 101711
03:00+13ююв228216 0.1 101713
06:00+14юв228470 0.0 101732
09:00+20ююв3459100 0.0 1016494
12:00+17зюз4688100 1.9 1017374
15:00+16в359499 4.1 1015131
18:00+19ююв258093 0.0 1014413
21:00+16в3691100 0.0 101394
6 августа, пт
пт600:00+16вюв378365 0.2 1012164
03:00+15юв239673 1.5 101256
06:00+15ююв269785 0.3 1011153
09:00+18ююв3992100 1.7 1011347
12:00+19вюв1287100 0.7 1011249
15:00+22вюв4771100 0.8 1010726
18:00+25в4756100 0.0 1007508
21:00+20в513728 0.0 1007330
7 августа, сб
сб700:00+17вюв379094 0.3 1007140
03:00+17ююв2293100 0.3 100742
06:00+18ююв2490100 0.3 100774
09:00+23ю597381 0.3 1007611
12:00+26ю695388 0.0 10081240
15:00+28ю5947100 0.0 10071997
18:00+26ю4856100 0.0 10071019
21:00+19з2391100 0.0 101071
8 августа, вс
вс800:00+19зсз378699 0.0 1011260
03:00+15з3490100 0.0 101380
06:00+15з2782100 0.0 1013194
09:00+18з3567100 0.0 1014542
12:00+22з3457100 0.0 10151179
15:00+24зюз344542 0.0 10151734
18:00+24з34508 0.0 10161538
21:00+18ссв11770 0.0 101711
9 августа, пн
пн900:00+16юз11840 0.0 101811
03:00+14з00885 0.0 101911
06:00+15св008750 0.0 101911
09:00+22юв115924 0.0 1019421
12:00+26зюз11415 0.0 10191501
15:00+28ююз01363 0.0 10181828
18:00+27зюз114218 0.0 1017917
21:00+19ююв116559 0.0 101811